Weather History for KCKV - October, 2011

Change the Weather History Date:

Saturday, October 8, 2011

  Actual Average Record
Temperature  
Mean Temperature 66 °F -  
Max Temperature 79 °F - 90 °F (2007)
Min Temperature 52 °F - 32 °F (1987)
Degree Days  
Heating Degree Days 0    
Month to date heating degree days 37  
Since 1 July heating degree days 72  
Cooling Degree Days 1    
Month to date cooling degree days 6  
Growing Degree Days 16 (Base 50)    
Moisture  
Dew Point 53 °F    
Average Humidity 71    
Maximum Humidity 100    
Minimum Humidity 42    
Precipitation  
Precipitation 0.00 in - 1.99 in (1959)
Month to date precipitation 0.00  
Sea Level Pressure  
Sea Level Pressure 30.31 in    
Wind  
Wind Speed 4 mph (SE)    
Max Wind Speed 13 mph    
Max Gust Speed 16 mph    
Visibility 8 miles    
Events Fog    
T = Trace of Precipitation, MM = Missing Value Source: NWS Daily Summary

Daily Weather History Graph

Daily Weather History Graph

Search for Another Location

Airport or City:

Trip Planner

Search our weather history database for the weather conditions in past years. The results will help you decide how hot, cold, wet, or windy it might be!

Date:

Astronomy

Oct. 08, 2011 Rise Set
Actual Time 6:50 AM CDT 6:23 PM CDT
Civil Twilight 6:24 AM CDT 6:49 PM CDT
Nautical Twilight 5:54 AM CDT 7:19 PM CDT
Astronomical Twilight 5:24 AM CDT 7:48 PM CDT
Moon 4:30 PM CDT (10/8) 3:41 AM CDT (10/8)
Length of Visible Light 12h 24m
Length of Day
11h 32m
Waxing Gibbous, 90% of the Moon is Illuminated
Oct 8
Waxing Gibbous
Oct 11
Full
Oct 19
Last Quarter
Oct 26
New
Nov 2
First Quarter

Hourly Weather History & Observations

Time (CDT) Temp. Dew Point Humidity Pressure Visibility Wind Dir Wind Speed Gust Speed Precip Events Conditions
12:52 AM 55.9 °F 55.0 °F 97% 30.29 in 4.0 mi East 3.5 mph - N/A   Clear
1:52 AM 57.0 °F 55.0 °F 93% 30.30 in 4.0 mi Calm Calm - N/A   Clear
2:12 AM 55.4 °F 55.4 °F 100% 30.30 in 1.5 mi SE 4.6 mph - N/A   Clear
2:20 AM 55.4 °F 53.6 °F 94% 30.30 in 0.5 mi SSE 3.5 mph - N/A Fog Fog
2:28 AM 55.4 °F 55.4 °F 100% 30.30 in 2.0 mi SE 3.5 mph - N/A   Clear
2:36 AM 57.2 °F 55.4 °F 94% 30.30 in 4.0 mi SSE 3.5 mph - N/A   Clear
2:52 AM 55.9 °F 55.0 °F 97% 30.29 in 6.0 mi SSE 4.6 mph - N/A   Clear
3:52 AM 55.9 °F 55.9 °F 100% 30.29 in 3.0 mi Calm Calm - N/A   Clear
4:52 AM 55.9 °F 53.1 °F 90% 30.31 in 10.0 mi SSE 3.5 mph - N/A   Clear
5:52 AM 54.0 °F 51.1 °F 90% 30.33 in 10.0 mi SE 4.6 mph - N/A   Clear
6:52 AM 53.1 °F 51.1 °F 93% 30.35 in 9.0 mi ESE 3.5 mph - N/A   Clear
7:52 AM 57.0 °F 54.0 °F 89% 30.37 in 8.0 mi Calm Calm - N/A   Clear
8:52 AM 63.0 °F 54.0 °F 72% 30.38 in 10.0 mi SE 5.8 mph - N/A   Clear
9:52 AM 68.0 °F 52.0 °F 56% 30.39 in 10.0 mi South 9.2 mph - N/A   Clear
10:52 AM 70.0 °F 53.1 °F 55% 30.38 in 10.0 mi SSE 9.2 mph - N/A   Clear
11:52 AM 73.9 °F 55.0 °F 52% 30.37 in 10.0 mi Variable 6.9 mph - N/A   Clear
1:52 PM 78.1 °F 55.0 °F 45% 30.31 in 10.0 mi SE 9.2 mph - N/A   Clear
2:52 PM 79.0 °F 55.0 °F 44% 30.30 in 10.0 mi South 5.8 mph - N/A   Partly Cloudy
3:52 PM 79.0 °F 53.1 °F 40% 30.28 in 10.0 mi Variable 3.5 mph - N/A   Clear
4:52 PM 78.1 °F 53.1 °F 42% 30.28 in 10.0 mi SSE 4.6 mph - N/A   Clear
5:52 PM 75.0 °F 53.1 °F 46% 30.28 in 10.0 mi SE 4.6 mph - N/A   Clear
6:52 PM 68.0 °F 53.1 °F 59% 30.28 in 10.0 mi ESE 3.5 mph - N/A   Clear
7:52 PM 66.9 °F 53.1 °F 61% 30.27 in 10.0 mi East 5.8 mph - N/A   Clear
8:52 PM 64.9 °F 51.1 °F 61% 30.29 in 10.0 mi ESE 5.8 mph - N/A   Clear
9:52 PM 63.0 °F 50.0 °F 63% 30.29 in 10.0 mi ESE 4.6 mph - N/A   Clear
10:52 PM 57.9 °F 48.0 °F 70% 30.29 in 10.0 mi ESE 3.5 mph - N/A   Clear
11:52 PM 55.9 °F 48.9 °F 77% 30.29 in 10.0 mi Calm Calm - N/A   Clear